METEOR 2-11 DEB, 42453

Orbit data source: Space-Track

METEOR 2-11 DEB, 42453 is space debris in LEO originally from a launch on Thu, 05 Jul 1984 UTC launched from the Plesetsk Missile And Space Complex (PKMTR). Debris objects in space refer to the collection of defunct objects orbiting the Earth. Examples of debris include non-operational satellites, rocket bodies, and fragments generated from explosions, collisions, or faulty payload assembly.

Loading next visibility...
Identifier
42453, 1984-072P
Orbit
LEO
Country
Flag of CISCIS
Related business
Manufacturer
Unknown
Mission
Spacecraft
Bus & Motor
Unknown
Mass
Unknown
Launch date (UTC)
1984-07-05 (41 years ago)
Launch vehicle
Unknown
Launch site
Plesetsk Missile And Space Complex (PKMTR)
Object type
Payload
Rocket body
Debris
Shape & HBR
Unknown shape, 0.1 m
Radar Cross Section
Small (<0.1 m²)

Expand to show TLE details & history
Last TLE update: 2 days ago

TLE from 2 days ago
0 METEOR 2-11 DEB
1 42453U 84072P   25299.99096161  .00003697  00000-0  26512-2 0  9990
2 42453  82.5314 206.9845 0008633 305.6398  54.3965 13.96786604544792
Epoch: 2025-10-26T23:46Z
TLE epoch observation values (Epoch: 2025-10-26T23:46:59.083Z)
Latitude
0.00004°
Longitude
174.6391°
Altitude
904.205 km
Speed
7.402 km/s
True Right ascension
13h 47m 56s
True Declination
0° 00' 00"
Sunlit
Object was in daylight at epoch
Visualization orbit readout
Latitude
Unknown
Longitude
Unknown
Altitude
Unknown
Speed
Unknown
Apparent Right ascension
Unknown
Apparent Declination
Unknown
Sunlit
N/A
Visualization observer readout
Local Sidereal Time
05:13:07
Azimuth
Unknown
Elevation
Unknown
Doppler factor
Unknown
Orbital elements
Apogee altitude
908.364 km
Perigee altitude
895.794 km
Semi-major axis
7,280.216 km
Eccentricity
0.00086
Inclination
82.5314°
RAAN
206.9845°
Arg. of periapsis
305.6398°
True anomaly
54.47698°
Mean anomaly
54.3965°
Eccentric anomaly
54.43674°
Mean motion
3.49403 °/min
Orbital period
103.03 mins
BSTAR
0.0026512
Loading maneuver chart data...
Computing Atmospheric mass density...
Loading historical data...
Loading historical data...
Loading historical data...
Loading historical data...
Loading historical data...
Loading historical data...
Loading historical data...

Documentation

Showing up to 5 results
|